Location: Narrabri
(30.3170°S, 149.7830°E)
Time: 21:25:01
(UTC+11:00)

ISS - Visible Passes

Search period start: 23 March 2019 00:00
Search period end: 02 April 2019 00:00
Orbit: 406 x 411 km, 51.6° (Epoch: 23 March)

Date Brightness Start Highest point End Pass type
(mag) Time Alt. Az. Time Alt. Az. Time Alt. Az.
23 Mar -0.5 06:17:55 10° NE 06:18:40 11° NE 06:19:26 10° ENE visible
25 Mar -2.1 06:09:49 10° NNW 06:12:50 33° NE 06:15:53 10° ESE visible
26 Mar -1.1 05:20:49 14° NNE 05:21:55 16° NE 05:23:59 10° E visible
27 Mar -3.8 06:05:25 26° WNW 06:07:07 69° SW 06:10:27 10° SE visible
28 Mar -2.2 05:17:04 35° ESE 05:17:04 35° ESE 05:19:18 10° SE visible
29 Mar -2.4 06:01:19 23° SW 06:01:32 23° SW 06:04:17 10° SSE visible
30 Mar -1.2 05:12:40 17° SSE 05:12:40 17° SSE 05:13:33 10° SSE visible
31 Mar -1.1 05:56:39 10° SSW 05:56:39 10° SSW 05:56:42 10° SSW visible
